�������l�o���
Date,Time,MP-1(��Sv/h),MP-2(��Sv/h),MP-3(��Sv/h),MP-4(��Sv/h),MP-5(��Sv/h),MP-6(��Sv/h),MP-7(��Sv/h),MP-8(��Sv/h),����,����(m/s),���J
2023/10/16,00:00,0.499,0.757,0.471,0.942,0.672,0.313,0.556,0.520,���k��,4.7,��
2023/10/16,00:10,0.499,0.756,0.471,0.941,0.673,0.313,0.557,0.520,���k��,5.0,��
2023/10/16,00:20,0.501,0.757,0.472,0.942,0.671,0.312,0.557,0.519,���k��,4.5,��
2023/10/16,00:30,0.499,0.759,0.471,0.942,0.673,0.312,0.556,0.520,��,4.1,��
2023/10/16,00:40,0.500,0.757,0.471,0.942,0.673,0.313,0.557,0.518,���k��,3.8,��
2023/10/16,00:50,0.499,0.758,0.471,0.942,0.673,0.313,0.555,0.519,���k��,4.0,��
2023/10/16,01:00,0.499,0.758,0.471,0.945,0.673,0.313,0.558,0.520,���k��,4.3,��
2023/10/16,01:10,0.501,0.757,0.471,0.943,0.674,0.314,0.556,0.519,���k��,5.1,��
2023/10/16,01:20,0.498,0.758,0.471,0.941,0.673,0.313,0.556,0.518,���k��,6.0,��
2023/10/16,01:30,0.499,0.758,0.472,0.944,0.672,0.313,0.557,0.520,���k��,5.8,��
2023/10/16,01:40,0.498,0.756,0.472,0.945,0.673,0.312,0.557,0.519,���k��,5.5,��
2023/10/16,01:50,0.499,0.757,0.471,0.943,0.673,0.314,0.555,0.520,�k��,6.0,��
2023/10/16,02:00,0.500,0.757,0.474,0.945,0.671,0.314,0.557,0.519,���k��,6.2,��
2023/10/16,02:10,0.499,0.758,0.472,0.945,0.674,0.314,0.557,0.520,���k��,6.9,��
2023/10/16,02:20,0.499,0.758,0.472,0.943,0.674,0.313,0.558,0.518,���k��,6.0,��
2023/10/16,02:30,0.500,0.757,0.472,0.943,0.673,0.312,0.558,0.519,��,6.9,��
2023/10/16,02:40,0.499,0.755,0.471,0.945,0.672,0.312,0.558,0.519,��,9.1,��
2023/10/16,02:50,0.499,0.760,0.471,0.943,0.673,0.314,0.557,0.519,��,8.5,��
2023/10/16,03:00,0.498,0.758,0.472,0.947,0.673,0.314,0.557,0.519,��,7.2,��
2023/10/16,03:10,0.499,0.758,0.472,0.944,0.675,0.313,0.558,0.519,��,7.1,��
2023/10/16,03:20,0.501,0.759,0.471,0.947,0.673,0.314,0.557,0.519,��,6.9,��
2023/10/16,03:30,0.500,0.758,0.471,0.946,0.673,0.313,0.558,0.520,��,6.9,��
2023/10/16,03:40,0.499,0.758,0.472,0.945,0.674,0.313,0.558,0.519,��,6.8,��
2023/10/16,03:50,0.499,0.758,0.473,0.946,0.674,0.314,0.559,0.520,���쐼,5.1,��
2023/10/16,04:00,0.498,0.756,0.470,0.946,0.673,0.314,0.558,0.520,���쐼,4.8,��
2023/10/16,04:10,0.499,0.756,0.473,0.946,0.673,0.314,0.557,0.519,���쐼,5.0,��
2023/10/16,04:20,0.499,0.759,0.472,0.945,0.675,0.313,0.559,0.521,��,4.8,��
2023/10/16,04:30,0.500,0.758,0.472,0.945,0.672,0.314,0.558,0.520,��,4.6,��
2023/10/16,04:40,0.500,0.758,0.473,0.943,0.674,0.313,0.558,0.520,��,5.0,��
2023/10/16,04:50,0.500,0.759,0.472,0.945,0.675,0.312,0.559,0.521,���k��,4.2,��
2023/10/16,05:00,0.498,0.758,0.471,0.943,0.674,0.312,0.558,0.519,�k��,4.8,��
2023/10/16,05:10,0.498,0.758,0.473,0.947,0.673,0.313,0.559,0.522,�k��,3.6,��
2023/10/16,05:20,0.500,0.759,0.472,0.944,0.674,0.313,0.557,0.520,���k��,3.3,��
2023/10/16,05:30,0.500,0.757,0.471,0.947,0.675,0.313,0.558,0.521,���k��,4.8,��
2023/10/16,05:40,0.500,0.760,0.473,0.945,0.676,0.312,0.556,0.520,��,4.8,��
2023/10/16,05:50,0.499,0.759,0.473,0.947,0.674,0.314,0.557,0.520,��,5.1,��
2023/10/16,06:00,0.500,0.759,0.471,0.945,0.676,0.314,0.558,0.520,��,5.3,��
2023/10/16,06:10,0.500,0.760,0.471,0.942,0.674,0.313,0.557,0.522,��,5.2,��
2023/10/16,06:20,0.501,0.759,0.472,0.947,0.674,0.313,0.556,0.520,��,5.9,��
2023/10/16,06:30,0.501,0.763,0.471,0.943,0.674,0.312,0.557,0.521,���k��,4.7,��
2023/10/16,06:40,0.500,0.760,0.471,0.945,0.675,0.315,0.558,0.521,���쐼,2.6,��
2023/10/16,06:50,0.499,0.760,0.472,0.946,0.673,0.314,0.558,0.521,��,3.8,��
2023/10/16,07:00,0.500,0.761,0.472,0.947,0.673,0.313,0.558,0.520,��,4.6,��
2023/10/16,07:10,0.500,0.759,0.474,0.945,0.674,0.313,0.557,0.521,���k��,5.2,��
2023/10/16,07:20,0.499,0.761,0.473,0.947,0.674,0.312,0.558,0.521,���k��,3.3,��
2023/10/16,07:30,0.501,0.760,0.473,0.946,0.675,0.313,0.559,0.520,���k��,3.1,��
2023/10/16,07:40,0.500,0.761,0.473,0.946,0.675,0.314,0.560,0.521,���k��,3.8,��
2023/10/16,07:50,0.501,0.759,0.475,0.946,0.675,0.313,0.559,0.521,���k��,4.5,��
2023/10/16,08:00,0.502,0.761,0.473,0.948,0.676,0.314,0.559,0.521,��,4.1,��
2023/10/16,08:10,0.500,0.759,0.471,0.945,0.675,0.313,0.556,0.520,��,2.8,��
2023/10/16,08:20,0.501,0.761,0.474,0.948,0.673,0.314,0.558,0.520,���k��,2.2,��
2023/10/16,08:30,0.501,0.760,0.472,0.945,0.676,0.314,0.557,0.522,���쐼,1.2,��
2023/10/16,08:40,0.499,0.761,0.475,0.949,0.676,0.313,0.556,0.521,���쐼,1.2,��
2023/10/16,08:50,0.501,0.759,0.474,0.949,0.676,0.314,0.557,0.521,�쐼,1.7,��
2023/10/16,09:00,0.501,0.761,0.475,0.949,0.676,0.315,0.557,0.520,��,2.9,��
2023/10/16,09:10,0.502,0.761,0.475,0.948,0.675,0.315,0.557,0.521,��,3.7,��
2023/10/16,09:20,0.500,0.762,0.474,0.949,0.677,0.314,0.557,0.521,���쐼,3.6,��
2023/10/16,09:30,0.501,0.762,0.476,0.948,0.676,0.313,0.559,0.521,��,3.8,��
2023/10/16,09:40,0.501,0.762,0.475,0.951,0.678,0.312,0.557,0.520,��,3.7,��
2023/10/16,09:50,0.501,0.762,0.475,0.947,0.677,0.313,0.559,0.519,���쐼,4.4,��
2023/10/16,10:00,0.502,0.762,0.473,0.947,0.678,0.312,0.559,0.519,��,3.6,��
2023/10/16,10:10,0.503,0.763,0.474,0.948,0.677,0.312,0.557,0.519,��,4.1,��
2023/10/16,10:20,0.503,0.763,0.475,0.951,0.664,0.313,0.558,0.521,��,4.9,��
2023/10/16,10:30,0.503,0.765,0.474,0.951,0.671,0.313,0.559,0.521,���k��,3.4,��
2023/10/16,10:40,0.503,0.762,0.476,0.950,0.680,0.310,0.560,0.520,��,3.2,��
2023/10/16,10:50,0.503,0.763,0.475,0.951,0.679,0.312,0.557,0.519,���k��,3.1,��
2023/10/16,11:00,0.504,0.761,0.476,0.951,0.679,0.314,0.557,0.518,��,2.2,��
2023/10/16,11:10,0.504,0.762,0.475,0.948,0.679,0.313,0.559,0.519,��,2.8,��
2023/10/16,11:20,0.504,0.764,0.477,0.951,0.680,0.313,0.559,0.520,�k��,2.9,��
2023/10/16,11:30,0.505,0.766,0.475,0.953,0.680,0.313,0.558,0.520,�k��,2.5,��
2023/10/16,11:40,0.505,0.764,0.475,0.951,0.682,0.313,0.558,0.519,�k�k��,1.2,��
2023/10/16,11:50,0.506,0.765,0.477,0.951,0.681,0.314,0.560,0.520,�k�k��,2.5,��
2023/10/16,12:00,0.506,0.765,0.476,0.952,0.681,0.312,0.559,0.521,���k��,2.0,��
2023/10/16,12:10,0.505,0.767,0.476,0.951,0.681,0.313,0.559,0.520,��,2.3,��
2023/10/16,12:20,0.505,0.767,0.477,0.952,0.681,0.315,0.560,0.520,�k�k��,2.3,��
2023/10/16,12:30,0.506,0.766,0.479,0.952,0.681,0.314,0.559,0.521,�k�k��,2.0,��
2023/10/16,12:40,0.505,0.768,0.478,0.951,0.683,0.313,0.560,0.521,���k��,2.3,��
2023/10/16,12:50,0.505,0.768,0.477,0.955,0.683,0.314,0.558,0.521,��,2.8,��
2023/10/16,13:00,0.506,0.767,0.477,0.956,0.682,0.315,0.560,0.522,���k��,2.2,��
2023/10/16,13:10,0.505,0.768,0.476,0.952,0.682,0.314,0.559,0.520,��,1.2,�L
2023/10/16,13:20,0.505,0.768,0.477,0.956,0.682,0.312,0.558,0.520,�k��,1.5,��
2023/10/16,13:30,0.503,0.768,0.478,0.953,0.683,0.313,0.558,0.522,���k��,2.2,��
2023/10/16,13:40,0.505,0.771,0.477,0.953,0.684,0.314,0.560,0.521,��,2.8,��
2023/10/16,13:50,0.503,0.768,0.477,0.951,0.683,0.313,0.559,0.521,���쐼,4.1,��
2023/10/16,14:00,0.505,0.770,0.477,0.955,0.683,0.313,0.560,0.522,���쐼,4.4,��
2023/10/16,14:10,0.503,0.767,0.479,0.954,0.684,0.314,0.558,0.521,���쐼,3.9,��
2023/10/16,14:20,0.506,0.765,0.477,0.954,0.684,0.315,0.559,0.522,��,4.8,��
2023/10/16,14:30,0.506,0.766,0.479,0.956,0.682,0.313,0.560,0.522,��,3.2,��
2023/10/16,14:40,0.505,0.770,0.479,0.957,0.684,0.314,0.559,0.521,��,3.8,��
2023/10/16,14:50,0.506,0.766,0.476,0.957,0.683,0.315,0.559,0.521,���쐼,4.4,��
2023/10/16,15:00,0.507,0.769,0.479,0.954,0.686,0.314,0.559,0.522,��,4.6,��
2023/10/16,15:10,0.509,0.767,0.478,0.954,0.685,0.314,0.559,0.522,��,4.5,��
2023/10/16,15:20,0.507,0.769,0.477,0.956,0.684,0.313,0.560,0.524,��,3.7,��
2023/10/16,15:30,0.508,0.768,0.479,0.953,0.685,0.313,0.559,0.521,��,2.6,��
2023/10/16,15:40,0.506,0.771,0.478,0.951,0.683,0.314,0.559,0.522,��,3.3,��
2023/10/16,15:50,0.507,0.766,0.478,0.953,0.686,0.315,0.560,0.522,���쐼,3.0,��
2023/10/16,16:00,0.508,0.769,0.478,0.954,0.685,0.313,0.558,0.521,���쐼,3.7,��
2023/10/16,16:10,0.506,0.768,0.478,0.954,0.684,0.314,0.560,0.522,��,4.2,��
2023/10/16,16:20,0.508,0.770,0.479,0.953,0.685,0.315,0.559,0.522,��,4.6,��
2023/10/16,16:30,0.506,0.768,0.477,0.954,0.685,0.315,0.559,0.522,��,4.6,��
2023/10/16,16:40,0.506,0.769,0.479,0.956,0.685,0.316,0.560,0.522,��,4.7,��
2023/10/16,16:50,0.506,0.772,0.478,0.956,0.687,0.315,0.560,0.522,��,4.2,��
2023/10/16,17:00,0.506,0.773,0.478,0.955,0.687,0.316,0.561,0.525,��,4.6,��
2023/10/16,17:10,0.506,0.775,0.479,0.959,0.688,0.315,0.560,0.524,��,3.9,��
2023/10/16,17:20,0.506,0.772,0.478,0.958,0.688,0.315,0.561,0.524,��,1.1,��
2023/10/16,17:30,0.508,0.773,0.479,0.955,0.686,0.316,0.560,0.523,��,2.2,��
2023/10/16,17:40,0.509,0.773,0.480,0.958,0.688,0.315,0.561,0.526,���쐼,2.5,��
2023/10/16,17:50,0.510,0.773,0.482,0.957,0.687,0.316,0.561,0.524,���쐼,3.0,��
2023/10/16,18:00,0.509,0.772,0.481,0.959,0.687,0.314,0.562,0.525,��,5.3,��
2023/10/16,18:10,0.509,0.771,0.480,0.958,0.687,0.315,0.562,0.523,��,8.5,��
2023/10/16,18:20,0.508,0.773,0.481,0.956,0.689,0.315,0.560,0.523,��,6.0,��
2023/10/16,18:30,0.509,0.772,0.481,0.958,0.688,0.317,0.561,0.523,��,6.2,��
2023/10/16,18:40,0.508,0.774,0.481,0.960,0.688,0.316,0.561,0.525,��,7.0,��
2023/10/16,18:50,0.510,0.773,0.480,0.956,0.687,0.315,0.559,0.525,��,7.6,��
2023/10/16,19:00,0.509,0.773,0.482,0.959,0.688,0.316,0.560,0.524,��,8.0,��
2023/10/16,19:10,0.508,0.777,0.483,0.959,0.688,0.314,0.562,0.524,��,9.6,��
2023/10/16,19:20,0.510,0.772,0.482,0.959,0.687,0.315,0.561,0.525,��,8.3,��
2023/10/16,19:30,0.508,0.773,0.482,0.959,0.687,0.313,0.562,0.524,��,7.1,��
2023/10/16,19:40,0.510,0.773,0.480,0.961,0.688,0.315,0.560,0.524,��,8.1,��
2023/10/16,19:50,0.511,0.774,0.481,0.963,0.687,0.316,0.560,0.524,��,8.6,��
2023/10/16,20:00,0.509,0.774,0.480,0.961,0.689,0.313,0.560,0.525,��,8.8,��
2023/10/16,20:10,0.510,0.775,0.481,0.962,0.690,0.314,0.559,0.525,���쐼,9.0,��
2023/10/16,20:20,0.507,0.776,0.481,0.961,0.689,0.314,0.561,0.525,��,8.5,��
2023/10/16,20:30,0.510,0.775,0.481,0.961,0.688,0.314,0.559,0.525,��,8.8,��
2023/10/16,20:40,0.508,0.774,0.484,0.962,0.687,0.314,0.560,0.523,��,8.0,��
2023/10/16,20:50,0.509,0.775,0.481,0.964,0.688,0.314,0.560,0.526,��,8.2,��
2023/10/16,21:00,0.509,0.777,0.481,0.964,0.688,0.315,0.560,0.525,��,6.8,��
2023/10/16,21:10,0.509,0.776,0.482,0.962,0.687,0.315,0.560,0.526,��,6.4,��
2023/10/16,21:20,0.510,0.776,0.481,0.963,0.687,0.315,0.559,0.525,��,7.9,��
2023/10/16,21:30,0.509,0.776,0.482,0.963,0.689,0.315,0.560,0.526,��,9.1,��
2023/10/16,21:40,0.508,0.775,0.481,0.962,0.687,0.314,0.560,0.525,��,9.8,��
2023/10/16,21:50,0.511,0.775,0.482,0.963,0.688,0.315,0.559,0.526,��,9.1,��
2023/10/16,22:00,0.508,0.774,0.481,0.963,0.690,0.314,0.559,0.525,��,8.1,��
2023/10/16,22:10,0.511,0.774,0.482,0.963,0.690,0.315,0.559,0.525,��,6.9,��
2023/10/16,22:20,0.510,0.775,0.481,0.965,0.691,0.314,0.560,0.525,��,6.5,��
2023/10/16,22:30,0.510,0.776,0.481,0.962,0.689,0.314,0.560,0.525,��,7.6,��
2023/10/16,22:40,0.511,0.775,0.481,0.964,0.688,0.315,0.560,0.526,���쐼,8.3,��
2023/10/16,22:50,0.509,0.775,0.482,0.963,0.689,0.314,0.560,0.525,��,7.4,�L
2023/10/16,23:00,0.510,0.774,0.482,0.963,0.689,0.316,0.560,0.527,��,8.4,��
2023/10/16,23:10,0.512,0.774,0.482,0.964,0.688,0.315,0.561,0.525,��,8.4,��
2023/10/16,23:20,0.510,0.774,0.482,0.964,0.690,0.315,0.560,0.528,��,8.8,��
2023/10/16,23:30,0.512,0.775,0.481,0.965,0.689,0.314,0.561,0.525,��,9.7,��
2023/10/16,23:40,0.511,0.774,0.481,0.964,0.689,0.315,0.560,0.526,���쐼,8.1,��
2023/10/16,23:50,0.511,0.776,0.482,0.965,0.691,0.316,0.561,0.526,���쐼,7.9,��
